Weather History for Siofok, Hungary

Change the Weather History Date:

Saturday, April 26, 2014

  Actual Average Record
Temperature  
Mean Temperature 62 °F -  
Max Temperature 71 °F - - ()
Min Temperature 54 °F - - ()
Degree Days  
Heating Degree Days 2    
Growing Degree Days 12 (Base 50)    
Moisture  
Dew Point 50 °F    
Average Humidity 64    
Maximum Humidity 92    
Minimum Humidity 25    
Precipitation  
Precipitation 0.00 in - - ()
Sea Level Pressure  
Sea Level Pressure 29.90 in    
Wind  
Wind Speed 3 mph ()    
Max Wind Speed 7 mph    
Max Gust Speed -    
Visibility 9.0 miles    
Events Rain    
T = Trace of Precipitation, MM = Missing Value Source: Averaged Metar Reports

Daily Weather History Graph

Daily Weather History Graph

Search for Another Location

Airport:

Trip Planner

Search our weather history database for the weather conditions in past years. The results will help you decide how hot, cold, wet, or windy it might be!

Date:

Astronomy

Apr. 26, 2014 Rise Set
Actual Time 5:41 AM CEST 7:51 PM CEST
Civil Twilight 5:08 AM CEST 8:24 PM CEST
Nautical Twilight 4:27 AM CEST 9:05 PM CEST
Astronomical Twilight 3:41 AM CEST 9:51 PM CEST
Moon 4:07 AM CEST 4:48 PM CEST
Length of Visible Light 15h 16m
Length of Day
14h 09m
Waning Crescent, 10% of the Moon is Illuminated
Apr 26
Waning Crescent
Apr 29
New
May 7
First Quarter
May 14
Full
May 21
Last Quarter

Hourly Weather History & Observations

Time (CEST) Temp. Dew Point Humidity Pressure Visibility Wind Dir Wind Speed Gust Speed Precip Events Conditions
12:00 AM 57 °F 55 °F 89% 29.92 in 9 mi East 2.2 mph - -   Partly Cloudy
1:00 AM 57 °F 55 °F 89% 29.92 in 9 mi East 2.2 mph - -   Partly Cloudy
2:00 AM 56 °F 54 °F 91% 29.92 in 9 mi East 2.2 mph - -   Partly Cloudy
3:00 AM 56 °F 54 °F 90% 29.91 in 9 mi East 2.2 mph - -   Partly Cloudy
4:00 AM 55 °F 53 °F 90% 29.91 in 9 mi East 2.2 mph - -   Partly Cloudy
5:00 AM 54 °F 52 °F 92% 29.91 in 9 mi East 2.2 mph - -   Partly Cloudy
6:00 AM 54 °F 52 °F 92% 29.91 in 4 mi East 2.2 mph - -   Partly Cloudy
7:00 AM 55 °F 52 °F 88% 29.93 in 4 mi East 2.2 mph - - Rain Light Rain
8:00 AM 56 °F 53 °F 84% 29.94 in 5 mi ENE 4.5 mph - - Rain Light Rain
9:00 AM 56 °F 53 °F 86% 29.94 in 5 mi NE 4.5 mph - - Rain Light Rain
10:00 AM 58 °F 55 °F 85% 29.94 in 5 mi NE 6.7 mph - - Rain Light Rain
11:00 AM 62 °F 53 °F 66% 29.94 in 6 mi SE 4.5 mph - -   Partly Cloudy
12:00 PM 63 °F 55 °F 67% 29.93 in 6 mi ESE 4.5 mph - -   Partly Cloudy
1:00 PM 64 °F 53 °F 59% 29.92 in 6 mi ESE 4.5 mph - -   Partly Cloudy
2:00 PM 65 °F 51 °F 51% 29.91 in 9 mi East 4.5 mph - -   Partly Cloudy
3:00 PM 66 °F 47 °F 39% 29.89 in 9 mi SE 6.7 mph - -   Partly Cloudy
4:00 PM 71 °F 43 °F 25% 29.86 in 12 mi ESE 4.5 mph - -   Partly Cloudy
5:00 PM 67 °F 44 °F 31% 29.85 in 16 mi East 2.2 mph - -   Partly Cloudy
6:00 PM 70 °F 43 °F 26% 29.85 in 22 mi ESE 4.5 mph - -   Partly Cloudy
7:00 PM 69 °F 41 °F 25% 29.84 in 22 mi SE 2.2 mph - -   Partly Cloudy
8:00 PM 65 °F 43 °F 33% 29.85 in 25 mi ESE 2.2 mph - -   Partly Cloudy
9:00 PM 61 °F 43 °F 41% 29.87 in 19 mi SSE 2.2 mph - -   Partly Cloudy
10:00 PM 58 °F 44 °F 50% 29.88 in 16 mi SE 2.2 mph - -   Partly Cloudy
11:00 PM 56 °F 44 °F 53% 29.88 in 12 mi Calm Calm - -   Partly Cloudy